Regional Weather Roundup
Issued by NWS Kansas City/Pleasant Hill, MO

Home | Current Version | Previous Version | Graphics & Text | Print | Product List | Glossary Off
Versions: 1 2 3 4 5 6 7 8 9 10 11 12 13 14 15 16 17 18 19 20 21 22 23 24 25 26 27 28 29 30 31 32 33 34 35 36 37 38 39 40 41 42 43 44 45 46 47 48 49 50

000
ASUS43 KEAX 290210
RWREAX

WEATHER ROUNDUP FOR EASTERN KANSAS AND NORTHWEST MISSOURI
NATIONAL WEATHER SERVICE KANSAS CITY/PLEASANT HILL MO
900 PM CDT THU MAY 28 2015

KSZ040-057-103>105-MOZ028-029-037-043-290300-
...KANSAS CITY METROPOLITAN AREA...

CITY           SKY/WX    TMP DP  RH WIND       PRES   REMARKS
K.C. INTL      CLOUDY    69  64  84 CALM      30.00R
K.C. DOWNTOWN  PTCLDY    71  62  73 CALM      29.98R
LEES SUMMIT    MOCLDY    68  65  90 SE6       30.00R
OLATHE - IXD   MOCLDY    67  63  87 E3        29.99R
OLATHE - OJC   PTCLDY    68  64  87 SE6       29.98R
LAWRENCE       MOCLDY    68  63  84 E5        29.97R

$$

MOZ001>008-011>017-020>025-030>033-038>040-044>046-053-054-290300-
...NORTHERN AND CENTRAL MISSOURI...

CITY           SKY/WX    TMP DP  RH WIND       PRES   REMARKS
ST. JOSEPH     MOCLDY    69  64  84 SE9       29.97S
MOSBY          CLOUDY    68  66  94 CALM      29.99S
WARRENSBURG    CLOUDY    66  64  94 E3        29.99R
WHITEMAN AFB   MOCLDY    68  64  88 SE6       29.98S
CLINTON        MOCLDY    68  66  94 CALM      29.99R
SEDALIA        CLOUDY    69  64  84 E7        30.01S
WARSAW         NOT AVBL
CHILLICOTHE      N/A     67  65  93 CALM      30.01R
KIRKSVILLE     CLOUDY    65  65 100 SE5       30.03S

$$

MOZ041-047>049-056>058-063>065-088>090-097-290300-
...EASTERN AND SOUTHERN MISSOURI...

CITY           SKY/WX    TMP DP  RH WIND       PRES   REMARKS
ST. LOUIS INTL MOCLDY    79  64  60 S12       30.05R
SPIRIT OF STL  MOCLDY   N/A N/A N/A SE3       30.02S
COLUMBIA       CLOUDY    68  66  93 NE9       30.01F
JEFFERSON CITY CLOUDY    70  67  90 E3        30.00F
ROLLA          CLOUDY    71  65  81 SE6       30.01S
OSAGE BEACH    CLOUDY    64  63  94 NE7       30.00F
SPRINGFIELD    PTCLDY    69  65  86 SE7       29.98S
JOPLIN         MOCLDY    70  65  84 CALM      29.97S
WEST PLAINS    CLOUDY    72  65  78 S9        30.04R

$$

IAZ060-094-KSZ022-034>040-054-083-096-NEZ052-066-093-290300-
...KANSAS...SOUTHEAST NEBRASKA AND IOWA...

CITY           SKY/WX    TMP DP  RH WIND       PRES   REMARKS
TOPEKA         PTCLDY    69  64  84 SE8       29.96S
MANHATTAN      MOCLDY    71  64  78 CALM      29.93S
EMPORIA        MOCLDY    69  64  84 SE7       29.95R
CHANUTE        MOCLDY    68  66  93 SE5       29.96S
WICHITA        MOCLDY    73  65  75 SE9       29.92R
OMAHA          MOCLDY    69  63  81 S9        29.93R
LINCOLN        MOCLDY    71  65  81 S10       29.93R
FALLS CITY     MOCLDY    68  63  84 SE8       29.94R
LAMONI         CLOUDY    71  66  84 SE6       29.99R
DES MOINES     CLOUDY    69  64  84 SE12      29.97S

$$




USA.gov is the U.S. government's official web portal to all federal, state and local government web resources and services.